SCP
0 0 0 0 0 0 0 0 0 -0 0 0 0 0 0 0 0 0 0 0 1 1 2 1 1 1 0 0 0 0 0 0 0 0 0 0 0 0 0 0 0 0 0
0 0 0 0 0 0 0 0 0 0 0 0 -0 0 0 0 0 0 0 0 1 1 2 2 1 1 0 0 0 0 0 0 0 0 0 0 0 0 0 0 0 0 0
0 0 0 0 0 0 0 0 0 0 0 0 -0 0 0 0 0 0 0 0 0 1 1 2 1 0 0 0 0 0 0 0 0 0 0 0 0 0 0 0 0 0 0
0 0 0 0 0 0 0 0 0 0 0 0 0 0 0 0 0 0 0 0 0 1 2 2 1 0 0 0 0 0 0 0 0 0 0 0 0 0 0 0 0 0 0
0 0 0 0 0 0 0 0 0 0 0 0 0 0 0 0 0 0 0 0 1 0 1 1 0 0 0 0 0 0 0 0 0 0 0 0 0 0 0 0 0 0 0
0 0 0 0 0 0 0 0 0 0 0 0 0 0 0 0 0 0 0 0 0 0 0 0 0 0 0 0 0 0 0 0 0 0 0 0 0 0 0 0 0 0 0
0 0 0 0 0 0 0 0 0 0 0 0 0 0 0 0 0 0 0 0 0 0 0 0 0 0 0 0 0 0 0 0 0 0 0 0 0 0 0 0 0 0 0
0 0 0 0 0 0 0 0 0 0 0 0 0 0 0 0 0 0 0 0 0 0 0 0 0 0 0 0 0 0 0 0 0 0 0 0 0 0 0 0 0 0 0
0 0 0 0 0 0 0 0 0 0 0 0 0 0 0 0 0 0 0 0 0 0 0 0 0 0 0 0 0 0 0 0 0 0 0 0 0 0 0 0 0 0 0
0 0 0 0 0 0 0 0 0 0 0 0 0 0 0 0 0 0 0 0 0 0 0 0 0 0 0 0 0 0 0 0 0 0 0 0 0 0 0 0 0 0 0
0 0 0 0 0 0 0 0 0 0 0 0 0 0 0 0 0 0 0 0 0 0 0 0 0 0 0 0 0 0 0 0 0 0 0 0 0 0 0 0 0 0 0
0 0 0 0 0 0 0 0 0 0 0 0 0 0 0 0 0 0 0 0 0 0 0 0 0 0 0 0 0 0 0 0 0 0 0 0 0 0 0 0 0 0 0
0 0 0 0 0 0 0 0 0 0 0 0 0 0 0 0 0 0 0 0 0 0 0 0 0 0 0 0 0 0 0 0 0 0 0 0 0 0 0 0 0 0 0
0 0 0 0 0 0 0 0 0 0 0 0 0 0 0 0 0 0 0 0 0 0 0 0 0 0 0 0 0 0 0 0 0 0 0 0 0 0 0 0 0 0 0
1 0 0 0 0 0 0 0 0 0 0 0 0 0 0 0 0 0 0 0 0 0 0 0 0 0 0 0 0 0 0 0 0 0 0 0 0 0 0 0 0 0 0
3 1 1 0 0 0 1 1 1 0 0 0 0 0 0 0 0 0 0 0 0 0 0 0 0 0 0 0 0 0 0 0 0 0 0 0 0 0 0 0 0 0 0
4 3 2 1 1 0 1 1 0 0 0 0 0 0 0 0 0 0 0 0 0 0 0 0 0 0 0 0 0 0 0 0 0 0 0 0 0 0 0 0 0 0 0
5 4 3 2 2 2 1 1 0 0 0 0 0 0 0 0 0 0 0 0 0 0 0 0 0 0 0 0 0 0 0 0 0 0 0 0 0 0 0 0 0 0 0
5 6 4 3 3 3 2 1 0 0 0 0 0 0 0 0 0 0 0 0 0 0 0 0 0 0 0 0 0 0 0 0 0 0 0 0 0 0 0 0 0 0 0
3 3 4 4 3 3 2 1 0 0 0 0 0 0 0 0 0 0 0 0 0 0 0 0 0 0 0 0 0 0 0 0 0 0 0 0 0 0 0 0 0 0 0
1 1 2 2 1 0 0 0 0 0 0 0 0 0 0 0 0 0 0 0 0 0 0 0 0 0 0 0 0 0 0 0 0 0 0 0 0 0 0 0 0 -0 -0
0 1 1 1 0 0 0 0 0 0 0 0 0 0 0 0 0 0 0 0 0 0 0 0 0 0 0 0 0 0 0 0 0 0 0 0 0 0 0 0 0 -0 -0
0 0 0 0 0 0 0 0 0 0 -0 -0 -0 0 0 0 0 0 0 0 0 0 0 0 0 0 0 0 0 0 0 0 0 0 0 0 0 0 0 0 0 -0 0
0 1 0 0 0 0 0 0 0 0 0 -0 0 0 0 0 0 0 0 0 0 0 0 0 0 0 0 0 0 0 0 0 0 0 0 0 0 0 0 0 -0 0 0
0 0 0 0 0 0 0 0 0 0 0 0 0 0 0 0 0 0 0 0 0 0 0 0 0 0 0 0 0 0 0 0 0 0 0 0 0 0 0 0 0 0 0
0 0 0 0 0 0 0 0 0 0 0 0 0 0 0 0 0 0 0 0 0 0 0 0 0 0 0 0 0 0 0 0 0 0 0 0 0 0 0 0 0 0 0
Wind_Speed_500mb
54 56 55 50 44 40 38 35 31 30 29 27 24 19 13 12 12 12 14 16 17 23 25 30 20 20 26 34 36 48 55 49 43 39 35 27 25 22 20 20 20 20 20
51 54 53 49 45 42 38 33 30 31 29 27 24 18 12 8 11 12 14 19 24 27 21 22 17 22 28 33 42 53 51 49 42 40 34 26 21 18 16 16 17 18 20
52 53 52 50 45 41 37 35 36 34 28 25 21 21 17 16 20 21 21 24 22 22 22 18 15 24 31 33 45 47 58 53 46 42 32 23 17 16 17 15 16 20 24
54 54 53 50 45 42 39 40 39 37 30 24 18 16 18 17 25 24 21 17 21 12 16 16 17 25 26 31 42 44 54 57 52 40 31 24 20 15 15 13 17 20 22
58 56 54 50 42 42 45 45 41 35 30 23 19 20 17 21 17 14 14 16 14 12 17 17 21 23 25 33 37 45 55 63 58 45 31 21 17 15 16 16 15 19 21
62 60 57 50 47 47 47 45 42 36 31 24 25 20 21 17 10 9 8 11 15 12 15 18 20 22 25 34 35 40 53 63 57 43 33 22 18 17 17 17 17 18 19
66 66 65 56 56 55 54 48 42 41 37 35 29 25 18 15 12 13 12 15 15 14 12 19 18 20 21 27 30 37 48 59 52 39 31 24 21 20 20 21 22 23 23
72 73 71 65 61 61 58 50 46 50 42 42 38 29 18 17 17 19 17 19 17 12 15 14 16 18 20 23 28 36 49 56 43 35 32 27 21 18 17 20 23 24 24
74 75 76 66 62 62 62 54 52 53 51 48 43 28 11 14 22 23 21 19 11 15 16 14 19 20 19 21 28 38 47 45 33 29 26 25 26 24 25 25 24 22 20
66 71 74 71 67 66 64 61 58 59 59 56 51 46 38 15 9 10 19 17 17 18 19 20 22 22 18 20 25 37 43 30 21 21 22 25 27 25 25 24 22 23 23
64 62 65 71 74 67 70 69 67 65 63 54 54 50 41 37 37 29 18 24 21 20 19 20 20 20 18 20 30 36 34 19 17 20 24 25 25 24 25 27 27 28 29
71 68 65 64 67 74 75 74 73 66 63 59 56 54 47 42 43 38 27 24 26 24 18 14 14 16 15 21 28 35 23 14 15 19 25 24 24 29 32 34 33 29 29
77 73 72 69 68 65 72 77 76 70 68 65 59 52 43 35 38 34 31 31 29 24 13 9 13 15 14 21 29 25 16 13 9 16 19 22 26 29 37 42 39 31 30
73 71 72 71 69 68 64 74 82 72 68 64 55 48 37 35 41 32 34 33 27 23 23 18 19 19 18 21 23 19 14 10 5 7 10 16 23 29 35 38 36 36 34
77 76 73 75 75 71 69 67 81 85 73 66 53 47 37 35 35 28 32 29 29 19 26 25 20 22 17 17 15 15 16 8 6 7 6 13 18 23 27 36 36 33 33
79 77 75 77 81 79 76 71 77 86 76 63 53 45 41 36 32 30 30 28 29 22 20 23 27 23 17 11 11 12 15 6 4 1 5 12 13 13 21 31 38 42 37
82 80 77 73 82 83 90 83 86 81 74 61 45 44 43 36 31 29 27 29 28 23 23 21 27 22 15 7 10 15 8 2 4 7 2 5 13 9 18 30 39 45 43
86 80 75 75 76 93 86 96 91 79 75 59 47 49 43 30 27 28 27 28 27 25 23 25 27 21 17 11 10 9 8 7 7 11 2 11 12 6 15 26 35 45 51
88 80 74 70 76 89 95 95 97 78 71 63 48 49 32 26 20 28 29 30 28 25 23 23 23 18 18 12 10 9 15 9 9 6 4 10 5 6 16 24 35 45 49
80 74 75 72 75 78 80 81 80 59 61 57 44 22 22 20 20 26 30 29 29 26 24 22 20 20 18 13 10 23 21 13 12 5 3 10 5 8 16 25 35 46 47
72 70 67 69 69 68 74 71 52 63 45 48 30 16 16 22 25 33 31 31 30 27 26 25 24 24 20 16 17 29 27 15 13 7 5 9 7 10 18 25 36 45 47
66 67 66 62 64 55 64 54 34 40 49 40 46 59 52 38 37 41 36 35 32 24 23 26 27 25 22 17 20 27 33 23 12 2 5 11 7 8 19 28 37 43 43
56 57 60 57 65 73 59 65 81 68 71 86 80 57 63 54 51 43 37 35 33 27 26 22 23 27 19 20 19 19 19 22 19 5 7 9 12 13 16 27 36 42 42
58 56 51 49 55 75 82 83 63 58 76 92 81 71 71 72 54 42 35 33 29 26 25 23 21 19 20 19 19 16 14 13 9 2 6 6 13 8 11 21 33 40 39
57 60 64 76 77 78 75 68 68 78 72 84 87 80 57 52 47 43 33 27 28 29 30 29 24 20 17 15 14 13 15 14 8 2 7 2 9 3 7 17 27 30 35
53 57 60 79 84 82 72 76 87 67 69 79 65 61 51 49 45 36 30 30 36 33 34 31 26 20 14 10 9 8 7 6 13 6 8 6 10 8 8 10 28 30 26
Wind_Direction_500mb
204 202 206 208 208 209 209 209 206 212 216 219 218 225 250 240 272 310 315 319 322 320 308 328 304 330 346 345 356 346 347 349 348 350 350 342 339 337 337 338 335 332 331
209 209 209 210 208 208 209 208 209 220 222 222 214 229 221 255 293 314 321 318 320 303 318 307 315 335 344 350 351 349 355 359 1 359 359 357 355 349 348 347 342 338 340
210 212 212 213 211 210 208 205 209 215 209 205 212 221 243 270 304 297 303 306 309 294 309 303 323 342 348 351 352 360 6 4 358 352 352 357 358 351 341 334 342 338 327
213 214 214 214 214 214 210 206 208 205 205 207 217 225 253 284 289 286 291 293 287 276 305 312 318 341 349 349 354 3 3 0 355 348 344 347 348 350 0 349 339 341 323
216 215 214 213 211 209 205 205 204 204 205 215 233 248 264 280 273 269 277 307 266 276 313 316 327 336 342 348 353 0 1 355 353 353 348 336 335 336 319 319 322 314 325
220 219 214 209 204 200 197 201 205 209 215 215 241 249 266 259 246 244 248 270 254 297 305 317 327 338 339 345 352 357 356 352 350 353 355 346 334 331 323 325 330 326 323
223 222 218 210 204 204 204 208 213 216 226 220 235 242 239 212 205 225 240 253 270 298 299 310 320 324 326 338 347 353 351 350 351 358 356 358 352 347 338 334 330 321 315
225 224 221 214 209 210 211 213 216 220 217 220 235 240 208 219 215 224 240 253 276 275 293 302 307 308 316 334 342 349 348 355 0 9 6 1 0 356 354 349 340 329 320
225 224 223 220 216 215 219 216 216 218 219 223 232 225 197 215 213 224 231 249 241 268 277 291 294 298 303 327 337 342 350 359 10 20 15 20 21 20 21 19 5 349 339
219 224 224 223 222 221 223 221 222 225 233 241 234 234 233 247 202 196 220 223 237 251 264 280 290 285 292 317 331 341 346 355 6 8 10 12 9 10 12 13 8 359 357
219 219 224 225 226 226 226 225 226 228 236 238 236 240 243 249 257 257 231 219 231 238 258 284 286 273 284 311 331 337 343 353 355 5 16 9 5 5 18 16 14 3 354
221 222 224 225 227 230 230 227 230 232 237 243 243 248 253 262 263 259 243 220 220 241 262 272 255 256 278 310 323 338 341 353 355 10 17 28 28 25 17 15 4 0 355
224 226 226 227 227 232 233 230 230 234 237 246 251 251 255 253 260 262 252 225 214 232 257 235 225 238 267 300 326 342 351 349 13 11 31 46 34 28 25 21 18 16 11
237 235 234 233 232 233 238 231 231 235 235 242 251 245 253 256 255 257 257 228 209 224 243 242 234 244 277 313 340 356 347 331 331 16 56 50 32 23 23 13 21 24 20
243 243 244 240 237 236 235 235 233 233 235 238 242 240 248 246 246 249 253 237 234 234 244 241 231 245 271 314 348 358 345 338 332 333 34 39 32 7 13 9 20 19 15
247 247 246 247 242 239 237 233 235 235 234 235 234 238 243 245 242 248 240 240 241 254 245 242 230 237 263 299 340 347 353 321 310 140 40 28 7 340 10 10 16 15 15
249 250 250 250 249 243 238 232 235 234 233 225 229 236 240 236 240 241 239 240 250 261 257 241 228 231 248 264 317 331 352 224 230 294 119 18 350 338 6 4 8 10 7
247 250 251 251 254 247 243 231 233 231 222 218 219 225 229 228 243 250 241 248 257 267 261 241 231 225 228 240 294 332 142 168 142 135 63 9 12 338 360 358 8 8 3
248 247 250 254 255 250 246 236 230 226 221 224 209 213 222 229 244 249 249 249 266 273 268 250 228 220 227 237 289 170 169 167 172 127 46 28 14 337 348 357 3 3 2
246 250 254 255 251 251 240 223 216 208 216 214 199 194 230 224 233 244 252 258 267 270 257 230 234 236 224 255 244 173 176 179 198 182 34 23 340 306 341 358 2 6 2
248 250 252 250 245 238 226 170 172 172 209 213 185 195 241 255 289 254 249 259 265 260 243 234 244 239 237 256 211 185 179 174 194 201 9 0 332 318 335 355 359 6 0
244 249 248 249 239 216 173 171 219 186 202 207 204 199 222 252 269 245 247 252 258 249 244 239 241 241 253 228 203 193 194 186 174 169 305 8 333 309 328 346 356 357 351
234 244 252 249 228 200 186 167 179 187 226 209 209 219 214 216 248 238 246 250 255 248 236 235 244 250 236 196 191 190 200 210 224 260 284 323 323 305 337 346 352 353 354
229 229 227 222 212 205 197 195 211 212 212 220 212 207 204 224 236 233 237 245 240 232 224 218 206 211 194 197 198 201 193 186 191 318 335 306 343 300 354 355 354 354 354
225 224 216 207 190 184 197 216 214 202 216 217 214 211 211 221 230 228 227 224 210 197 184 172 173 173 169 169 173 191 201 201 208 39 336 280 22 190 66 5 354 355 359
229 224 226 215 215 219 217 202 197 208 205 212 194 193 211 222 220 223 212 208 195 181 176 169 166 163 155 157 155 170 171 174 169 144 70 55 61 55 145 7 15 6 360
Wind_Speed_850mb
54 56 55 50 44 40 38 35 31 30 29 27 24 19 13 12 12 12 14 16 17 23 25 30 20 20 26 34 36 48 55 49 43 39 35 27 25 22 20 20 20 20 20
51 54 53 49 45 42 38 33 30 31 29 27 24 18 12 8 11 12 14 19 24 27 21 22 17 22 28 33 42 53 51 49 42 40 34 26 21 18 16 16 17 18 20
52 53 52 50 45 41 37 35 36 34 28 25 21 21 17 16 20 21 21 24 22 22 22 18 15 24 31 33 45 47 58 53 46 42 32 23 17 16 17 15 16 20 24
54 54 53 50 45 42 39 40 39 37 30 24 18 16 18 17 25 24 21 17 21 12 16 16 17 25 26 31 42 44 54 57 52 40 31 24 20 15 15 13 17 20 22
58 56 54 50 42 42 45 45 41 35 30 23 19 20 17 21 17 14 14 16 14 12 17 17 21 23 25 33 37 45 55 63 58 45 31 21 17 15 16 16 15 19 21
62 60 57 50 47 47 47 45 42 36 31 24 25 20 21 17 10 9 8 11 15 12 15 18 20 22 25 34 35 40 53 63 57 43 33 22 18 17 17 17 17 18 19
66 66 65 56 56 55 54 48 42 41 37 35 29 25 18 15 12 13 12 15 15 14 12 19 18 20 21 27 30 37 48 59 52 39 31 24 21 20 20 21 22 23 23
72 73 71 65 61 61 58 50 46 50 42 42 38 29 18 17 17 19 17 19 17 12 15 14 16 18 20 23 28 36 49 56 43 35 32 27 21 18 17 20 23 24 24
74 75 76 66 62 62 62 54 52 53 51 48 43 28 11 14 22 23 21 19 11 15 16 14 19 20 19 21 28 38 47 45 33 29 26 25 26 24 25 25 24 22 20
66 71 74 71 67 66 64 61 58 59 59 56 51 46 38 15 9 10 19 17 17 18 19 20 22 22 18 20 25 37 43 30 21 21 22 25 27 25 25 24 22 23 23
64 62 65 71 74 67 70 69 67 65 63 54 54 50 41 37 37 29 18 24 21 20 19 20 20 20 18 20 30 36 34 19 17 20 24 25 25 24 25 27 27 28 29
71 68 65 64 67 74 75 74 73 66 63 59 56 54 47 42 43 38 27 24 26 24 18 14 14 16 15 21 28 35 23 14 15 19 25 24 24 29 32 34 33 29 29
77 73 72 69 68 65 72 77 76 70 68 65 59 52 43 35 38 34 31 31 29 24 13 9 13 15 14 21 29 25 16 13 9 16 19 22 26 29 37 42 39 31 30
73 71 72 71 69 68 64 74 82 72 68 64 55 48 37 35 41 32 34 33 27 23 23 18 19 19 18 21 23 19 14 10 5 7 10 16 23 29 35 38 36 36 34
77 76 73 75 75 71 69 67 81 85 73 66 53 47 37 35 35 28 32 29 29 19 26 25 20 22 17 17 15 15 16 8 6 7 6 13 18 23 27 36 36 33 33
79 77 75 77 81 79 76 71 77 86 76 63 53 45 41 36 32 30 30 28 29 22 20 23 27 23 17 11 11 12 15 6 4 1 5 12 13 13 21 31 38 42 37
82 80 77 73 82 83 90 83 86 81 74 61 45 44 43 36 31 29 27 29 28 23 23 21 27 22 15 7 10 15 8 2 4 7 2 5 13 9 18 30 39 45 43
86 80 75 75 76 93 86 96 91 79 75 59 47 49 43 30 27 28 27 28 27 25 23 25 27 21 17 11 10 9 8 7 7 11 2 11 12 6 15 26 35 45 51
88 80 74 70 76 89 95 95 97 78 71 63 48 49 32 26 20 28 29 30 28 25 23 23 23 18 18 12 10 9 15 9 9 6 4 10 5 6 16 24 35 45 49
80 74 75 72 75 78 80 81 80 59 61 57 44 22 22 20 20 26 30 29 29 26 24 22 20 20 18 13 10 23 21 13 12 5 3 10 5 8 16 25 35 46 47
72 70 67 69 69 68 74 71 52 63 45 48 30 16 16 22 25 33 31 31 30 27 26 25 24 24 20 16 17 29 27 15 13 7 5 9 7 10 18 25 36 45 47
66 67 66 62 64 55 64 54 34 40 49 40 46 59 52 38 37 41 36 35 32 24 23 26 27 25 22 17 20 27 33 23 12 2 5 11 7 8 19 28 37 43 43
56 57 60 57 65 73 59 65 81 68 71 86 80 57 63 54 51 43 37 35 33 27 26 22 23 27 19 20 19 19 19 22 19 5 7 9 12 13 16 27 36 42 42
58 56 51 49 55 75 82 83 63 58 76 92 81 71 71 72 54 42 35 33 29 26 25 23 21 19 20 19 19 16 14 13 9 2 6 6 13 8 11 21 33 40 39
57 60 64 76 77 78 75 68 68 78 72 84 87 80 57 52 47 43 33 27 28 29 30 29 24 20 17 15 14 13 15 14 8 2 7 2 9 3 7 17 27 30 35
53 57 60 79 84 82 72 76 87 67 69 79 65 61 51 49 45 36 30 30 36 33 34 31 26 20 14 10 9 8 7 6 13 6 8 6 10 8 8 10 28 30 26
Wind_Direction_850mb
204 202 206 208 208 209 209 209 206 212 216 219 218 225 250 240 272 310 315 319 322 320 308 328 304 330 346 345 356 346 347 349 348 350 350 342 339 337 337 338 335 332 331
209 209 209 210 208 208 209 208 209 220 222 222 214 229 221 255 293 314 321 318 320 303 318 307 315 335 344 350 351 349 355 359 1 359 359 357 355 349 348 347 342 338 340
210 212 212 213 211 210 208 205 209 215 209 205 212 221 243 270 304 297 303 306 309 294 309 303 323 342 348 351 352 360 6 4 358 352 352 357 358 351 341 334 342 338 327
213 214 214 214 214 214 210 206 208 205 205 207 217 225 253 284 289 286 291 293 287 276 305 312 318 341 349 349 354 3 3 0 355 348 344 347 348 350 0 349 339 341 323
216 215 214 213 211 209 205 205 204 204 205 215 233 248 264 280 273 269 277 307 266 276 313 316 327 336 342 348 353 0 1 355 353 353 348 336 335 336 319 319 322 314 325
220 219 214 209 204 200 197 201 205 209 215 215 241 249 266 259 246 244 248 270 254 297 305 317 327 338 339 345 352 357 356 352 350 353 355 346 334 331 323 325 330 326 323
223 222 218 210 204 204 204 208 213 216 226 220 235 242 239 212 205 225 240 253 270 298 299 310 320 324 326 338 347 353 351 350 351 358 356 358 352 347 338 334 330 321 315
225 224 221 214 209 210 211 213 216 220 217 220 235 240 208 219 215 224 240 253 276 275 293 302 307 308 316 334 342 349 348 355 0 9 6 1 0 356 354 349 340 329 320
225 224 223 220 216 215 219 216 216 218 219 223 232 225 197 215 213 224 231 249 241 268 277 291 294 298 303 327 337 342 350 359 10 20 15 20 21 20 21 19 5 349 339
219 224 224 223 222 221 223 221 222 225 233 241 234 234 233 247 202 196 220 223 237 251 264 280 290 285 292 317 331 341 346 355 6 8 10 12 9 10 12 13 8 359 357
219 219 224 225 226 226 226 225 226 228 236 238 236 240 243 249 257 257 231 219 231 238 258 284 286 273 284 311 331 337 343 353 355 5 16 9 5 5 18 16 14 3 354
221 222 224 225 227 230 230 227 230 232 237 243 243 248 253 262 263 259 243 220 220 241 262 272 255 256 278 310 323 338 341 353 355 10 17 28 28 25 17 15 4 0 355
224 226 226 227 227 232 233 230 230 234 237 246 251 251 255 253 260 262 252 225 214 232 257 235 225 238 267 300 326 342 351 349 13 11 31 46 34 28 25 21 18 16 11
237 235 234 233 232 233 238 231 231 235 235 242 251 245 253 256 255 257 257 228 209 224 243 242 234 244 277 313 340 356 347 331 331 16 56 50 32 23 23 13 21 24 20
243 243 244 240 237 236 235 235 233 233 235 238 242 240 248 246 246 249 253 237 234 234 244 241 231 245 271 314 348 358 345 338 332 333 34 39 32 7 13 9 20 19 15
247 247 246 247 242 239 237 233 235 235 234 235 234 238 243 245 242 248 240 240 241 254 245 242 230 237 263 299 340 347 353 321 310 140 40 28 7 340 10 10 16 15 15
249 250 250 250 249 243 238 232 235 234 233 225 229 236 240 236 240 241 239 240 250 261 257 241 228 231 248 264 317 331 352 224 230 294 119 18 350 338 6 4 8 10 7
247 250 251 251 254 247 243 231 233 231 222 218 219 225 229 228 243 250 241 248 257 267 261 241 231 225 228 240 294 332 142 168 142 135 63 9 12 338 360 358 8 8 3
248 247 250 254 255 250 246 236 230 226 221 224 209 213 222 229 244 249 249 249 266 273 268 250 228 220 227 237 289 170 169 167 172 127 46 28 14 337 348 357 3 3 2
246 250 254 255 251 251 240 223 216 208 216 214 199 194 230 224 233 244 252 258 267 270 257 230 234 236 224 255 244 173 176 179 198 182 34 23 340 306 341 358 2 6 2
248 250 252 250 245 238 226 170 172 172 209 213 185 195 241 255 289 254 249 259 265 260 243 234 244 239 237 256 211 185 179 174 194 201 9 0 332 318 335 355 359 6 0
244 249 248 249 239 216 173 171 219 186 202 207 204 199 222 252 269 245 247 252 258 249 244 239 241 241 253 228 203 193 194 186 174 169 305 8 333 309 328 346 356 357 351
234 244 252 249 228 200 186 167 179 187 226 209 209 219 214 216 248 238 246 250 255 248 236 235 244 250 236 196 191 190 200 210 224 260 284 323 323 305 337 346 352 353 354
229 229 227 222 212 205 197 195 211 212 212 220 212 207 204 224 236 233 237 245 240 232 224 218 206 211 194 197 198 201 193 186 191 318 335 306 343 300 354 355 354 354 354
225 224 216 207 190 184 197 216 214 202 216 217 214 211 211 221 230 228 227 224 210 197 184 172 173 173 169 169 173 191 201 201 208 39 336 280 22 190 66 5 354 355 359
229 224 226 215 215 219 217 202 197 208 205 212 194 193 211 222 220 223 212 208 195 181 176 169 166 163 155 157 155 170 171 174 169 144 70 55 61 55 145 7 15 6 360